Regional Weather Roundup
Issued by NWS

Current Version | Previous Version | Text Only | Print | Product List | Glossary On
Versions: 1 2 3 4 5 6 7 8 9 10 11 12 13 14 15 16 17 18 19 20 21 22 23 24 25 26 27
000
ASUS43 KMPX 040610
RWRMN
WEATHER ROUNDUP FOR MINNESOTA
NATIONAL WEATHER SERVICE TWIN CITIES/CHANHASSEN MN
100 AM CDT TUE OCT 04 2022


NOTE: "FAIR" INDICATES FEW OR NO CLOUDS BELOW 12,000 FEET WITH NO
SIGNIFICANT WEATHER AND/OR OBSTRUCTIONS TO VISIBILITY. N/A MEANS
CURRENT SKY AND/OR WEATHER CONDITIONS ARE NOT AVAILABLE.

MNZ060>063-068>070-040700-
   Twin Cities Metro

CITY           SKY/WX    TMP DP  RH WIND       PRES   REMARKS
TWIN CITIES    MOCLDY    63  45  51 S9        30.18F
6HR MIN TEMP:  63; 6HR MAX TEMP:  71;

ST PAUL        MOCLDY    60  48  64 SE9       30.19F
CRYSTAL        MOCLDY    63  46  54 S5        30.16S
BLAINE         MOCLDY    63  46  55 S7        30.18S
LAKEVILLE      MOCLDY    54  43  66 CALM      30.20F
EDEN PRAIRIE     N/A     62  46  55 S3        30.17S
6HR MIN TEMP:  62; 6HR MAX TEMP:  69;

SOUTH ST PAUL  MOCLDY    59  47  63 SE5       30.19S
LAKE ELMO      FAIR      57  48  72 S6        30.21S
$$
MNZ001>005-007-008-013>017-022>024-027-028-040700-
   Northwest Minnesota

CITY           SKY/WX    TMP DP  RH WIND       PRES   REMARKS
BEMIDJI        CLOUDY    62  51  67 CALM      30.11F
HALLOCK        CLOUDY    59  55  88 CALM      30.03F
ROSEAU           N/A     61  55  82 S3        30.06F
WARROAD        MOCLDY    57  54  88 CALM      30.07F
THIEF RVR FALL CLOUDY    62  50  64 S3        30.08F
CROOKSTON      MOCLDY    64  48  55 S8        30.06F
FOSSTON        MOCLDY    61  48  63 S6        30.11S
DETROIT LAKES  CLOUDY    59  52  77 NE5       30.10F
MOORHEAD       LGT RAIN  64  52  63 S5        30.09F
PARK RAPIDS    CLOUDY    62  50  64 CALM      30.12S
MAHNOMEN       CLOUDY    61  50  66 SE5       30.11F
$$
MNZ006-009>011-018-025>026-040700-
   North Central Minnesota

CITY           SKY/WX    TMP DP  RH WIND       PRES   REMARKS
BAUDETTE       CLOUDY    61  52  72 S5        30.09F
INTL FALLS     LGT RAIN  59  53  80 VRB5      30.11S
6HR MIN TEMP:  59; 6HR MAX TEMP:  64; 6HR PCP: TRACE;

WASKISH        CLOUDY    64  54  68 CALM      30.10F
BIG FORK       MOCLDY    59  55  88 CALM      30.18S
GRAND RAPIDS   CLOUDY    58  54  86 CALM      30.17S
CRANE LAKE     DRIZZLE   57  52  82 CALM      30.15S
ORR            CLOUDY    59  54  82 CALM      30.13R
COOK           CLOUDY    55  52  88 CALM      30.15S
WALKER         CLOUDY    60  51  73 CALM      30.12F
$$
MNZ012-019>021-037-040700-
   Northeast Minnesota

CITY           SKY/WX    TMP DP  RH WIND       PRES   REMARKS
DULUTH         CLOUDY    60  51  72 SW8       30.17S
6HR MIN TEMP:  60; 6HR MAX TEMP:  65; 6HR PCP: TRACE;

ELY            CLOUDY    59  50  72 SW3       30.16S
HIBBING        MOCLDY    52  52 100 CALM      30.17R
EVELETH        CLOUDY    54  52  95 CALM      30.18S
DULUTH HARBOR  CLOUDY    59  55  88 SW3       30.15F
TWO HARBORS    DRIZZLE   55  54  94 CALM      30.16S
GRAND MARAIS     N/A     56  53  90 CALM      30.15S
G MARAIS ARPRT MOCLDY    55  52  88 CALM      30.16S
$$
MNZ029>031-032-039>041-046>048-054>057-064-040700-
   West Central Minnesota

CITY           SKY/WX    TMP DP  RH WIND       PRES   REMARKS
FERGUS FALLS   CLOUDY    63  48  59 CALM      30.10S
WHEATON          N/A     59  52  77 CALM      30.11F
MORRIS           N/A     63  43  48 S5        30.13S
ALEXANDRIA     CLOUDY    62  46  55 S5        30.15F
ELBOW LAKE     CLOUDY    61  49  64 SE3       30.12S
WADENA         CLOUDY    64  46  52 SW5       30.13S
GLENWOOD       CLOUDY    63  45  51 SE7       30.14F
APPLETON       LGT RAIN  63  46  55 CALM      30.12S
BENSON         CLEAR     63  45  51 S6        30.14S
ORTONVILLE     LGT RAIN  59  55  88 SE5       30.12F
MADISON        LGT RAIN  64  52  63 S3        30.15S
WILLMAR        FAIR      63  45  51 S5        30.18S
$$
MNZ033>034-036-042>043-049>051-058-059-040700-
   Central Minnesota

CITY           SKY/WX    TMP DP  RH WIND       PRES   REMARKS
ST CLOUD       MOCLDY    57  50  77 SE5       30.16S
6HR MIN TEMP:  57; 6HR MAX TEMP:  68;

SAUK CENTRE    FAIR      58  46  64 CALM      30.15S
PAYNESVILLE    MOCLDY    63  45  51 S6        30.16S
AITKIN         MOCLDY    61  52  72 S7        30.15S
PINE RIVER       N/A     59  52  77 CALM      30.16F
BRAINERD       MOCLDY    61  48  62 S8        30.15S
STAPLES        CLOUDY    61  50  67 S6        30.14R
LONG PRAIRIE   FAIR      59  46  63 S3        30.16R
LITTLE FALLS     N/A     59  48  67 SE5       30.15F
CAMP RIPLEY    FAIR      58  49  73 CALM      30.13S
LITCHFIELD     MOCLDY    63  45  51 S5        30.15S
BUFFALO        MOCLDY    63  48  59 S6        30.16F
MAPLE LAKE     MOCLDY    60  48  63 CALM      30.18S
HUTCHINSON     CLOUDY    58  46  65 SE3       30.17F
$$
MNZ037-044-045-052-053-040700-
   East Central Minnesota

CITY           SKY/WX    TMP DP  RH WIND       PRES   REMARKS
PRINCETON      MOCLDY    61  48  63 CALM      30.17F
MORA           MOCLDY    55  52  88 CALM      30.21S
CAMBRIDGE      PTCLDY    61  45  55 CALM      30.18S
RUSH CITY      MOCLDY    61  52  72 S3        30.18F
MOOSE LAKE     MOCLDY    55  52  88 CALM      30.18S
HINCKLEY       MOCLDY    55  52  88 CALM      30.18S
CLOQUET        MOCLDY    57  50  77 SW5       30.16S
MCGREGOR       MOCLDY    59  50  72 S6        30.16S
$$
MNZ071>073-080-081-089-090-097-098-040700-
   Southwest Minnesota

CITY           SKY/WX    TMP DP  RH WIND       PRES   REMARKS
MONTEVIDEO     DRIZZLE   63  46  55 SW3       30.15R
GRANITE FALLS  CLOUDY    63  46  52 SE5       30.16S
CANBY          CLOUDY    65  51  60 SW5       30.14S
MARSHALL       MOCLDY    65  44  46 CALM      30.15S
REDWOOD FALLS  MOCLDY    58  43  57 SE6       30.15S
OLIVIA         MOCLDY    61  43  51 SE6       30.15S
WINDOM         CLOUDY    61  46  59 S5        30.16F
WORTHINGTON    MOCLDY    62  45  53 S10       30.17S
JACKSON        CLOUDY    61  46  59 S7        30.18F
TRACY          MOCLDY    64  41  42 SW10      30.16R
SLAYTON        MOCLDY    63  43  48 SW10      30.18R
$$
MNZ065>067-074>077-082>085-091>093-040700-
   South Central Minnesota

CITY           SKY/WX    TMP DP  RH WIND       PRES   REMARKS
MANKATO        MOCLDY    59  47  64 SE8       30.19S
NEW ULM        MOCLDY    57  46  67 S7        30.16F
ST JAMES       MOCLDY    59  46  63 SE6       30.17S
FAIRMONT       MOCLDY    58  48  69 S9        30.19S
GLENCOE        MOCLDY    60  47  61 CALM      30.17S
FARIBAULT      MOCLDY    57  46  67 S5        30.20F
OWATONNA       MOCLDY    59  45  58 S8        30.20S
WASECA         MOCLDY    55  45  67 SE6       30.21F
ALBERT LEA     MOCLDY    57  46  67 S8        30.22R
$$
MNZ078>079-086>088-094>096-040700-
   Southeast Minnesota

CITY           SKY/WX    TMP DP  RH WIND       PRES   REMARKS
ROCHESTER      PTCLDY    54  43  66 S10       30.23S
6HR MIN TEMP:  53; 6HR MAX TEMP:  63;

RED WING       MOCLDY    57  46  67 SE3       30.20S
STANTON        MOCLDY    58  44  60 S5        30.20S
DODGE CENTER   PTCLDY    52  43  71 S8        30.22S
WINONA         PTCLDY    50  46  87 CALM      30.24S
AUSTIN         PTCLDY    55  45  67 CALM      30.22S
PRESTON        PTCLDY    52  44  73 S6        30.24F
$$
ABBREVIATIONS USED IN REMARKS
   TC - TEMPERATURES IN CELSIUS
  WCI - WIND CHILL INDEX
   HX - HEAT INDEX
  VSB - VISIBILITY
$$



USA.gov is the U.S. government's official web portal to all federal, state and local government web resources and services.